Change the Weather History Date:

Saturday, March 2, 2013

  Actual Average Record
Temperature  
Mean Temperature 42 °F 59 °F  
Max Temperature 49 °F 69 °F 85 °F (1932)
Min Temperature 34 °F 50 °F 25 °F (1980)
Degree Days  
Heating Degree Days 23 7  
Month to date heating degree days 38 14  
Since 1 July heating degree days 1048 1244  
Cooling Degree Days 0 1  
Month to date cooling degree days 0 2  
Year to date cooling degree days 31 34  
Growing Degree Days 0 (Base 50)    
Moisture  
Dew Point 28 °F    
Average Humidity 62    
Maximum Humidity 82    
Minimum Humidity 42    
Precipitation  
Precipitation 0.00 in 0.14 in 4.15 in (1979)
Month to date precipitation 0.00 0.28  
Year to date precipitation 17.87 10.40  
Snow  
Snow 0.00 in 0.00 in 0.00 in ()
Month to date snowfall 0.0 0.0  
Since 1 July snowfall 0.0 T  
Snow Depth 0.00 in    
Sea Level Pressure  
Sea Level Pressure 30.24 in    
Wind  
Wind Speed 8 mph (North)    
Max Wind Speed 22 mph    
Max Gust Speed 29 mph    
Visibility 10 miles    
Events      
T = Trace of Precipitation, MM = Missing Value Source: NWS Daily Summary

Daily Weather History Graph

Daily Weather History Graph

Search for Another Location

Airport or City:

Trip Planner

Search our weather history database for the weather conditions in past years. The results will help you decide how hot, cold, wet, or windy it might be!

Date:

Astronomy

Mar. 02, 2013 Rise Set
Actual Time 6:32 AM CST 6:07 PM CST
Civil Twilight 6:08 AM CST 6:31 PM CST
Nautical Twilight 5:40 AM CST 6:59 PM CST
Astronomical Twilight 5:12 AM CST 7:27 PM CST
Moon 11:20 PM CST (3/2) 9:26 AM CST (3/2)
Length of Visible Light 12h 23m
Length of Day
11h 35m
Waning Gibbous, 74% of the Moon is Illuminated
Mar 2
Waning Gibbous
Mar 4
Last Quarter
Mar 11
New
Mar 19
First Quarter
Mar 27
Full

Hourly Weather History & Observations

Time (CST) Temp. Windchill Dew Point Humidity Pressure Visibility Wind Dir Wind Speed Gust Speed Precip Events Conditions
12:53 AM 42.1 °F - 30.9 °F 65% 30.19 in 10.0 mi Calm Calm - N/A   Clear
1:53 AM 42.1 °F - 32.0 °F 67% 30.18 in 10.0 mi Calm Calm - N/A   Clear
2:53 AM 39.9 °F - 32.0 °F 73% 30.18 in 10.0 mi Calm Calm - N/A   Clear
3:53 AM 37.9 °F 35.5 °F 32.0 °F 79% 30.19 in 10.0 mi NE 3.5 mph - N/A   Clear
4:53 AM 39.0 °F 36.8 °F 32.0 °F 76% 30.20 in 10.0 mi ENE 3.5 mph - N/A   Clear
5:53 AM 37.9 °F - 32.0 °F 79% 30.21 in 10.0 mi Calm Calm - N/A   Clear
6:53 AM 36.0 °F 32.1 °F 30.0 °F 79% 30.23 in 10.0 mi North 4.6 mph - N/A   Clear
7:53 AM 41.0 °F 36.4 °F 30.9 °F 67% 30.25 in 10.0 mi North 6.9 mph - N/A   Clear
8:53 AM 42.1 °F 34.9 °F 30.0 °F 62% 30.27 in 10.0 mi NNW 13.8 mph - N/A   Clear
9:53 AM 44.1 °F 36.5 °F 27.0 °F 51% 30.27 in 10.0 mi North 17.3 mph - N/A   Clear
10:53 AM 45.0 °F 38.5 °F 26.1 °F 48% 30.27 in 10.0 mi North 13.8 mph - N/A   Mostly Cloudy
11:53 AM 46.9 °F - 26.1 °F 44% 30.26 in 10.0 mi NW 15.0 mph 21.9 mph N/A   Mostly Cloudy
12:53 PM 46.9 °F - 25.0 °F 42% 30.23 in 10.0 mi NNW 17.3 mph 25.3 mph N/A   Partly Cloudy
1:53 PM 46.9 °F - 24.1 °F 41% 30.21 in 10.0 mi North 17.3 mph 27.6 mph N/A   Clear
2:53 PM 46.0 °F 39.3 °F 24.1 °F 42% 30.21 in 10.0 mi NNW 16.1 mph 24.2 mph N/A   Partly Cloudy
3:53 PM 46.9 °F - 24.1 °F 41% 30.22 in 10.0 mi North 18.4 mph 21.9 mph N/A   Partly Cloudy
4:53 PM 46.0 °F 39.9 °F 24.1 °F 42% 30.22 in 10.0 mi North 13.8 mph - N/A   Clear
5:53 PM 45.0 °F 39.7 °F 24.1 °F 44% 30.24 in 10.0 mi North 10.4 mph - N/A   Clear
6:53 PM 42.8 °F 39.3 °F 24.8 °F 49% 30.25 in 10.0 mi North 5.8 mph - N/A   Clear
7:53 PM 41.0 °F 38.0 °F 25.0 °F 53% 30.27 in 10.0 mi NNE 4.6 mph - N/A   Clear
8:53 PM 39.0 °F - 26.1 °F 60% 30.28 in 10.0 mi Calm Calm - N/A   Clear
9:53 PM 39.0 °F - 28.0 °F 65% 30.28 in 10.0 mi Calm Calm - N/A   Clear
10:53 PM 36.0 °F - 28.0 °F 73% 30.28 in 10.0 mi Calm Calm - N/A   Clear
11:53 PM 35.1 °F - 28.0 °F 76% 30.28 in 10.0 mi Calm Calm - N/A   Clear